KELNKPUW

Guest
Details From KELN - BOWERS FLD
To KPUW - Pullman Moscow Rgnl
Flight Number -
Tags generated
Created
Modified
Stats Distance 141 nm / 262 km
Max Altitude 17,200 ft / 5,243 m
Waypoints 3
Social Downloads 0
Likes 0
Share VATSIM

Download

Looking for another format? Having issues loading an existing format? Contact us
Advertisement - Login to hide

Notes

Basic altitude profile: - Ascent Rate: 1000ft/min - Ascent Speed: 100kts - Cruise Altitude: 13500ft - Cruise Speed: 160kts - Descent Rate: 1500ft/min - Descent Speed: 150kts Options: - Use NATs: no - Use PACOTS: no - Use low airways: yes - Use high airways: no

Route

KELN UPBOB KPUW

ID Type Via Altitude Latitude Longitude Leg Dist Tot Dist Heading (true) Name
O KELN APT - 0 ft / 0 m 47.03324˚ -120.53048˚ - 0 nm - BOWERS FLD
UPBOB FIX - 17,200 ft / 5,243 m 46.92953˚ -119.05558˚ 60 nm 60 nm 95° / 96° -
O KPUW APT - 0 ft / 0 m 46.74386˚ -117.10959˚ 80 nm 141 nm 97° / 99° Pullman Moscow Rgnl

Altitude Profile

Advertisement - Login to hide

KELN

Details ICAO KELN
Name BOWERS FLD
Region United States
Timezone America/Los_Angeles (UTC-7.0)
Stats Elevation 1,763 ft / 537 m (AMSL)
Location 47.033240° -120.530484°
Runways 2
Magnetic Variation 15.163° E

METAR

KELN 260153Z AUTO 31027G36KT 10SM CLR 18/07 A2985 RMK AO2 PK WND 31041/0115 SLP101 T01780072

Decode

TAF

Not found

Departure Runways

ID Width Length Bearing (true) Bearing (mag) Surface Threshold Offset Overrun Length
07 150 ft / 46 m 5,574 ft / 1,699 m 87.93° 72.77° Asphalt 0 ft / 0 m 0 ft / 0 m
11 150 ft / 46 m 4,295 ft / 1,309 m 133.07° 117.91° Concrete 0 ft / 0 m 0 ft / 0 m
25 150 ft / 46 m 5,574 ft / 1,699 m 267.94° 252.78° Asphalt 0 ft / 0 m 0 ft / 0 m
29 150 ft / 46 m 4,295 ft / 1,309 m 313.08° 297.92° Concrete 0 ft / 0 m 0 ft / 0 m

KPUW

Details ICAO KPUW (PUW)
Name Pullman Moscow Rgnl
Region United States
Timezone America/Los_Angeles (UTC-7.0)
Stats Elevation 2,556 ft / 779 m (AMSL)
Location 46.743856° -117.109587°
Runways 1
Magnetic Variation 14.216° E

METAR

KPUW 260153Z AUTO 30006KT 10SM CLR 22/12 A2980 RMK AO2 SLP076 T02220117

Decode

TAF

KPUW 252329Z 2600/2624 32007KT P6SM SCT100 SCT200 FM260200 29006KT P6SM BKN100 OVC200 FM260300 25007KT P6SM -SHRA VCTS BKN100CB OVC150 FM261000 25004KT P6SM -SHRA OVC080 FM262100 26009KT P6SM SCT080 BKN120 OVC200

Decode

Destination Runways

ID Width Length Bearing (true) Bearing (mag) Surface Threshold Offset Overrun Length
05 100 ft / 30 m 6,714 ft / 2,046 m 70.05° 55.83° Asphalt 290 ft / 88 m 0 ft / 0 m
23 100 ft / 30 m 6,714 ft / 2,046 m 250.07° 235.85° Asphalt 801 ft / 244 m 0 ft / 0 m

Popular Alternatives